When you browse on this site, cookies collect data to enhance your experience and personalize the content and advertising you see.
Visit our Privacy Policy to learn more. By continuing to use the site, you agree to this use of cookies and data.
  • en France
  • Liste des pays
  • À 7 jours
  • Température de l'eau
  • Carte satellitaire
  • Carte météo
  • Widgets météo
  • user-avatar
    Se connecter

    Météo par heure à Khulna

    Ce jour, 24 Janvier, Jeudi

    Heure Température Précipitation Vent Pression Humidité
    00:00 +22°C° 0 mm 1 m/s 761 mmHg 47%
    01:00 +22°C° 0 mm 1 m/s 761 mmHg 48%
    02:00 +22°C° 0 mm 1 m/s 761 mmHg 49%
    03:00 +19°C° 0 mm 0 m/s 761 mmHg 50%
    04:00 +19°C° 0 mm 0 m/s 761 mmHg 51%
    05:00 +19°C° 0 mm 0 m/s 761 mmHg 52%
    06:00 +18°C° 0 mm 0 m/s 761 mmHg 52%
    07:00 +22°C° 0 mm 1 m/s 762 mmHg 48%
    08:00 +24°C° 0 mm 1 m/s 762 mmHg 44%
    09:00 +26°C° 0 mm 1 m/s 763 mmHg 41%
    10:00 +27°C° 0 mm 2 m/s 762 mmHg 37%
    11:00 +29°C° 0 mm 2 m/s 762 mmHg 33%
    12:00 +31°C° 0 mm 2 m/s 762 mmHg 29%
    13:00 +31°C° 0 mm 2 m/s 761 mmHg 28%
    14:00 +32°C° 0 mm 2 m/s 761 mmHg 27%
    15:00 +34°C° 0 mm 2 m/s 760 mmHg 25%
    16:00 +31°C° 0 mm 2 m/s 760 mmHg 28%
    17:00 +30°C° 0 mm 2 m/s 760 mmHg 31%
    18:00 +28°C° 0 mm 2 m/s 760 mmHg 34%
    19:00 +27°C° 0 mm 2 m/s 760 mmHg 37%
    20:00 +26°C° 0 mm 2 m/s 761 mmHg 40%
    21:00 +25°C° 0 mm 2 m/s 761 mmHg 42%
    22:00 +25°C° 0 mm 2 m/s 761 mmHg 45%
    23:00 +24°C° 0 mm 1 m/s 761 mmHg 48%

    Demain, 25 Janvier, Vendredi

    Heure Température Précipitation Vent Pression Humidité
    00:00 +23°C° 0 mm 1 m/s 761 mmHg 51%
    01:00 +23°C° 0 mm 1 m/s 761 mmHg 52%
    02:00 +22°C° 0 mm 1 m/s 761 mmHg 53%
    03:00 +20°C° 0 mm 0 m/s 760 mmHg 54%
    04:00 +22°C° 0 mm 1 m/s 760 mmHg 55%
    05:00 +21°C° 0 mm 1 m/s 760 mmHg 56%
    06:00 +21°C° 0 mm 1 m/s 760 mmHg 57%
    07:00 +23°C° 0 mm 2 m/s 761 mmHg 53%
    08:00 +24°C° 0 mm 2 m/s 762 mmHg 48%
    09:00 +26°C° 0 mm 2 m/s 763 mmHg 44%
    10:00 +28°C° 0 mm 2 m/s 763 mmHg 40%
    11:00 +29°C° 0 mm 3 m/s 762 mmHg 36%
    12:00 +31°C° 0 mm 3 m/s 762 mmHg 31%
    13:00 +33°C° 0 mm 3 m/s 761 mmHg 30%
    14:00 +33°C° 0 mm 3 m/s 760 mmHg 28%
    15:00 +34°C° 0 mm 3 m/s 760 mmHg 27%
    16:00 +31°C° 0 mm 3 m/s 760 mmHg 30%
    17:00 +30°C° 0 mm 3 m/s 760 mmHg 34%
    18:00 +28°C° 0 mm 3 m/s 760 mmHg 37%
    19:00 +27°C° 0 mm 3 m/s 760 mmHg 40%
    20:00 +26°C° 0 mm 3 m/s 761 mmHg 42%
    21:00 +25°C° 0 mm 3 m/s 761 mmHg 44%
    22:00 +25°C° 0 mm 3 m/s 761 mmHg 45%
    23:00 +24°C° 0 mm 2 m/s 761 mmHg 46%

    Après-demain, 26 Janvier, Samedi

    Heure Température Précipitation Vent Pression Humidité
    00:00 +23°C° 0 mm 2 m/s 761 mmHg 46%
    01:00 +23°C° 0 mm 2 m/s 761 mmHg 47%
    02:00 +21°C° 0 mm 2 m/s 760 mmHg 48%
    03:00 +22°C° 0 mm 1 m/s 760 mmHg 49%
    04:00 +21°C° 0 mm 1 m/s 760 mmHg 51%
    05:00 +21°C° 0 mm 1 m/s 760 mmHg 53%
    06:00 +21°C° 0 mm 1 m/s 760 mmHg 55%
    07:00 +22°C° 0 mm 1 m/s 761 mmHg 51%
    08:00 +24°C° 0 mm 2 m/s 762 mmHg 48%
    09:00 +25°C° 0 mm 2 m/s 763 mmHg 44%
    10:00 +27°C° 0 mm 2 m/s 763 mmHg 39%
    11:00 +29°C° 0 mm 2 m/s 762 mmHg 35%
    12:00 +31°C° 0 mm 2 m/s 762 mmHg 30%
    13:00 +33°C° 0 mm 3 m/s 761 mmHg 28%
    14:00 +33°C° 0 mm 3 m/s 761 mmHg 27%
    15:00 +33°C° 0 mm 3 m/s 760 mmHg 25%
    16:00 +31°C° 0 mm 3 m/s 760 mmHg 29%
    17:00 +29°C° 0 mm 3 m/s 760 mmHg 33%
    18:00 +28°C° 0 mm 3 m/s 760 mmHg 37%
    19:00 +27°C° 0 mm 3 m/s 761 mmHg 40%
    20:00 +26°C° 0 mm 3 m/s 762 mmHg 42%
    21:00 +25°C° 0 mm 3 m/s 762 mmHg 45%
    22:00 +24°C° 0 mm 3 m/s 762 mmHg 47%
    23:00 +22°C° 0 mm 3 m/s 762 mmHg 49%

    27 Janvier, Dimanche

    Heure Température Précipitation Vent Pression Humidité
    00:00 +23°C° 0 mm 2 m/s 762 mmHg 51%
    01:00 +21°C° 0 mm 2 m/s 762 mmHg 52%
    02:00 +21°C° 0 mm 2 m/s 761 mmHg 53%
    03:00 +22°C° 0 mm 1 m/s 761 mmHg 54%
    04:00 +20°C° 0 mm 2 m/s 761 mmHg 54%
    05:00 +20°C° 0 mm 2 m/s 762 mmHg 55%
    06:00 +19°C° 0 mm 2 m/s 762 mmHg 55%
    07:00 +21°C° 0 mm 3 m/s 763 mmHg 50%
    08:00 +22°C° 0 mm 3 m/s 763 mmHg 46%
    09:00 +25°C° 0 mm 3 m/s 764 mmHg 41%
    10:00 +27°C° 0 mm 3 m/s 764 mmHg 37%
    11:00 +29°C° 0 mm 3 m/s 763 mmHg 33%
    12:00 +31°C° 0 mm 3 m/s 763 mmHg 28%
    13:00 +31°C° 0 mm 3 m/s 762 mmHg 27%
    14:00 +33°C° 0 mm 3 m/s 761 mmHg 27%
    15:00 +33°C° 0 mm 3 m/s 760 mmHg 26%
    16:00 +31°C° 0 mm 3 m/s 761 mmHg 29%
    17:00 +29°C° 0 mm 3 m/s 761 mmHg 32%
    18:00 +27°C° 0 mm 3 m/s 761 mmHg 35%
    19:00 +27°C° 0 mm 3 m/s 761 mmHg 37%
    20:00 +26°C° 0 mm 3 m/s 762 mmHg 39%
    21:00 +25°C° 0 mm 3 m/s 762 mmHg 41%
    22:00 +24°C° 0 mm 3 m/s 762 mmHg 42%
    23:00 +24°C° 0 mm 3 m/s 762 mmHg 43%

    28 Janvier, Lundi

    Heure Température Précipitation Vent Pression Humidité
    00:00 +24°C° 0 mm 3 m/s 762 mmHg 44%
    01:00 +24°C° 0 mm 3 m/s 762 mmHg 43%
    02:00 +24°C° 0 mm 3 m/s 761 mmHg 42%
    03:00 +24°C° 0 mm 3 m/s 761 mmHg 41%
    04:00 +24°C° 0 mm 3 m/s 761 mmHg 42%
    05:00 +24°C° 0 mm 3 m/s 762 mmHg 44%
    06:00 +22°C° 0 mm 3 m/s 762 mmHg 45%
    07:00 +24°C° 0 mm 3 m/s 763 mmHg 46%
    08:00 +23°C° 0 mm 4 m/s 763 mmHg 47%
    09:00 +25°C° 0 mm 4 m/s 764 mmHg 48%
    10:00 +26°C° 0 mm 4 m/s 764 mmHg 43%
    11:00 +28°C° 0 mm 4 m/s 763 mmHg 38%
    12:00 +29°C° 0 mm 4 m/s 763 mmHg 34%
    13:00 +30°C° 0 mm 4 m/s 762 mmHg 32%
    14:00 +30°C° 0 mm 4 m/s 761 mmHg 31%
    15:00 +32°C° 0 mm 5 m/s 761 mmHg 30%
    16:00 +29°C° 0 mm 4 m/s 761 mmHg 33%
    17:00 +28°C° 0 mm 3 m/s 761 mmHg 36%
    18:00 +26°C° 0 mm 3 m/s 761 mmHg 38%
    19:00 +25°C° 0 mm 3 m/s 761 mmHg 41%
    20:00 +24°C° 0 mm 3 m/s 762 mmHg 43%
    21:00 +22°C° 0 mm 3 m/s 762 mmHg 45%
    22:00 +22°C° 0 mm 3 m/s 762 mmHg 46%
    23:00 +21°C° 0 mm 3 m/s 762 mmHg 46%

    29 Janvier, Mardi

    Heure Température Précipitation Vent Pression Humidité
    00:00 +21°C° 0 mm 3 m/s 762 mmHg 47%
    01:00 +20°C° 0 mm 3 m/s 762 mmHg 49%
    02:00 +20°C° 0 mm 3 m/s 761 mmHg 50%
    03:00 +20°C° 0 mm 3 m/s 761 mmHg 52%
    04:00 +19°C° 0 mm 3 m/s 761 mmHg 54%
    05:00 +19°C° 0 mm 3 m/s 761 mmHg 56%
    06:00 +18°C° 0 mm 3 m/s 762 mmHg 58%
    07:00 +20°C° 0 mm 4 m/s 762 mmHg 52%
    08:00 +21°C° 0 mm 4 m/s 763 mmHg 46%
    09:00 +22°C° 0 mm 5 m/s 763 mmHg 39%
    10:00 +25°C° 0 mm 4 m/s 763 mmHg 36%
    11:00 +27°C° 0 mm 4 m/s 762 mmHg 33%
    12:00 +28°C° 0 mm 4 m/s 762 mmHg 29%
    13:00 +29°C° 0 mm 4 m/s 761 mmHg 29%
    14:00 +29°C° 0 mm 4 m/s 761 mmHg 28%
    15:00 +29°C° 0 mm 4 m/s 760 mmHg 27%
    16:00 +28°C° 0 mm 4 m/s 760 mmHg 30%
    17:00 +26°C° 0 mm 3 m/s 760 mmHg 34%
    18:00 +25°C° 0 mm 3 m/s 760 mmHg 37%
    19:00 +24°C° 0 mm 3 m/s 761 mmHg 38%
    20:00 +23°C° 0 mm 2 m/s 761 mmHg 40%
    21:00 +21°C° 0 mm 2 m/s 762 mmHg 42%
    22:00 +21°C° 0 mm 2 m/s 762 mmHg 43%
    23:00 +20°C° 0 mm 2 m/s 762 mmHg 44%
    Voir plus